Regional Weather Roundup
Issued by NWS

Home | Current Version | Previous Version | Graphics & Text | Print | Product List | Glossary On
Versions: 1 2 3 4 5 6 7 8 9 10 11 12 13 14 15 16 17 18 19 20 21 22 23 24 25 26 27 28 29 30 31 32 33 34 35 36 37 38 39 40 41 42 43 44 45 46 47 48 49 50
382
ASUS43 KIND 250909
RWRIN

WEATHER ROUNDUP FOR INDIANA
NATIONAL WEATHER SERVICE INDIANAPOLIS IN
500 AM EDT TUE APR 25 2017

NOTE: "FAIR" INDICATES FEW OR NO CLOUDS BELOW 12,000 FEET WITH NO
SIGNIFICANT WEATHER AND/OR OBSTRUCTIONS TO VISIBILITY.

* - STATION DOES NOT REPORT WEATHER SUCH AS PRECIPITATION OR FOG.

+ - STATION NOT QUALITY CONTROLLED BY THE NATIONAL WEATHER SERVICE.
    USE DATA WITH CAUTION...ESPECIALLY DEWPOINT AND RELATIVE
    HUMIDITY OBSERVATIONS.

INZ001>003-010>013-019-020-251000-
NORTHWEST INDIANA

CITY           SKY/WX    TMP DP  RH WIND       PRES   REMARKS
GARY /AIRPORT/ CLEAR     58  44  60 SE8       29.74S
KNOX *+        CLEAR     52  32  46 SE7       29.76S
LA PORTE +     CLEAR     47  42  84 E6        29.77F
MICHIGAN CITY+ CLEAR     54  43  66 CALM      29.77S
MONTICELLO +   CLEAR     55  49  80 SE3       29.76S
RENSSELAER +   CLEAR     54  50  87 SE8       29.75S
VALPARAISO     CLEAR     49  43  80 NE6       29.76S

$$

LMZ046-743>745-251000-
SOUTHERN LAKE MICHIGAN

STATION/POSITION TIME  TEMP    WIND        PRES    WAVE
                       AIR SEA DIR/SP/G            HT
                 (UTC) (F)     (DEG/KT/KT) (MB)    (FT)
BURNS HARBOR     0902   58     140/ 10/ 17 1007.8
MICHIGAN CITY    0840   57     120/ 11/ 13   N/A

$$

INZ004-005-014>016-021>024-251000-
NORTH CENTRAL INDIANA

CITY           SKY/WX    TMP DP  RH WIND       PRES   REMARKS
GOSHEN         CLEAR     51  44  77 SE9       29.79S
LOGANSPORT +   CLEAR     48  46  93 E7        29.78S
PERU/GRISSOM   CLEAR     54  54 100 E8        29.76S
ROCHESTER +    CLEAR     55  48  76 SE7       29.79S
SOUTH BEND     CLEAR     50  43  77 E8        29.80S
WARSAW +       CLEAR     50  45  81 CALM      29.80S

$$

INZ006>009-017-018-025>027-251000-
NORTHEAST INDIANA

CITY           SKY/WX    TMP DP  RH WIND       PRES   REMARKS
ANGOLA *+      CLEAR     52  46  82 SE9       29.82S
AUBURN +       CLEAR     50  45  81 CALM      29.83R
FORT WAYNE     MOCLDY    53  47  79 SE7       29.81S
HUNTINGTON +   CLOUDY    54  49  82 SE6       29.80S
KENDALLVILLE + CLEAR     49  46  89 SE6       29.81S

$$

INZ028-029-035-036-043>045-051>053-251000-
WEST CENTRAL INDIANA

CITY           SKY/WX    TMP DP  RH WIND       PRES   REMARKS
CRAWFORDSVL +  CLEAR     51  50  95 SE6       29.75S
GREENCASTLE +  CLEAR     50  46  87 SE5       29.76F
LAFAYETTE      CLEAR     52  50  93 E7        29.74F
TERRE HAUTE    CLEAR     54  49  83 CALM      29.75S

$$

INZ030>032-037>040-046>048-054>057-064-065-251000-
CENTRAL INDIANA

CITY           SKY/WX    TMP DP  RH WIND       PRES   REMARKS
CP ATTERBURY + CLEAR     50  46  87 CALM      29.78S FOG
FISHERS *+     CLEAR     50  50 100 SE3       29.77S
FRANKFORT +    CLEAR     54  50  87 SE6       29.78S
GREENWOOD *+   CLEAR     55  50  82 CALM      29.78S
INDIANAPOLIS   PTCLDY    57  51  80 SE7       29.77S
-EAGLE CREEK   CLEAR     53  49  86 CALM      29.77S
KOKOMO +       CLEAR     53  50  89 E7        29.78S
MARION +       CLOUDY    55  52  88 SE7       29.79F
MT COMFORT *+  CLEAR     55  50  82 SE5       29.79R
SHELBYVILLE    CLEAR     59  51  75 SE7       29.77S
ZIONSVILLE +   CLEAR     50  48  93 SE3       29.78S

$$

INZ033-034-041-042-049-050-058-059-251000-
EAST CENTRAL INDIANA

CITY           SKY/WX    TMP DP  RH WIND       PRES   REMARKS
MUNCIE         CLOUDY    59  51  75 SE8       29.79S
RICHMOND +     CLEAR     48  46  93 CALM      29.81S

$$

INZ060-061-067>069-081>083-085>088-251000-
SOUTHWEST INDIANA

CITY           SKY/WX    TMP DP  RH WIND       PRES   REMARKS
EVANSVILLE     CLEAR     53  50  89 CALM      29.75S
HUNTINGBURG *+ CLEAR     56  52  86 SE5       29.76S
WASHINGTON +   CLEAR    N/A N/A N/A MISG      29.75S

$$

INZ062-063-066-070>080-084-089>092-251000-
SOUTH CENTRAL AND SOUTHEAST INDIANA

CITY           SKY/WX    TMP DP  RH WIND       PRES   REMARKS
BEDFORD +      CLEAR     54  50  87 E3        29.76S
BLOOMINGTON    CLEAR     53  48  83 E3        29.76S
MADISON *+     CLEAR     54  52  94 CALM      29.80S
NORTH VERNON + CLOUDY    59  55  88 E5        29.78F
SEYMOUR +      CLEAR     52  50  93 CALM      29.78S

$$





USA.gov is the U.S. government's official web portal to all federal, state and local government web resources and services.